Home > Weather > Soltau > Past weeks

Flag for Germany Past Weather in Soltau, Lower Saxony, Germany — Yesterday and Last 2 Weeks

Now
79 °F

Partly sunny.


Feels Like: 80 °F
Forecast: 61 / 78 °F
Wind: 2 mph from North

Location: Fassberg

Current Time: Jul 24, 2016 at 8:41:45 PM

Latest Report: Jul 24, 2016 at 7:20 PM


Visibility: N/A

Pressure: 30.04 "Hg

Humidity: 54%

Dew Point: 61 °F

Location of SoltauLocation

Past Weather in Soltau — Graph

°F

Soltau Temperature Yesterday

Maximum temperature yesterday: 75 °F (at 4:20 PM)
Minimum temperature yesterday: 61 °F (at 4:20 AM)
Average temperature yesterday: 68 °F

High & Low Weather Summary for the Past Weeks

 TemperatureHumidityPressure
High88 °F (Jul 21, 4:20 PM)100% (Jul 17, 6:20 AM)30.24 "Hg (Jul 17, 6:20 AM)
Low45 °F (Jul 16, 3:20 AM)37% (Jul 20, 7:20 PM)29.71 "Hg (Jul 10, 11:20 PM)
Average66 °F72%30.01 "Hg
* Reported Jul 9 6:20 PM — Jul 24 6:20 PM, Soltau, Weather by CustomWeather, © 2016

Note: Actual official high and low records may vary slightly from our data, if they occured in-between our weather recording intervals... More about our weather records

Advertising

Soltau Weather History for the Previous 24 Hours

Scroll right to see more
 ConditionsComfort  
Time TempWeatherWind HumidityBarometerVisibility
6:20 PM
Sun, Jul 24
81 °FPartly sunny.3 mph48%30.04 "HgN/A
5:20 PM82 °FPartly sunny.2 mph45%30.04 "HgN/A
4:20 PM81 °FPartly sunny.2 mph45%30.07 "HgN/A
3:20 PM82 °FBroken clouds.3 mph45%30.07 "HgN/A
2:20 PM81 °FBroken clouds.3 mph48%30.07 "HgN/A
1:20 PM81 °FScattered clouds.3 mph45%30.07 "HgN/A
12:20 PM81 °FScattered clouds.6 mph48%30.07 "HgN/A
11:20 AM79 °FScattered clouds.5 mph54%30.09 "HgN/A
10:20 AM77 °FScattered clouds.1 mph57%30.09 "HgN/A
9:20 AM75 °FPartly sunny.2 mph61%30.09 "HgN/A
8:20 AM68 °FPartly sunny.3 mph78%30.09 "HgN/A
7:20 AM64 °FBroken clouds.1 mph88%30.09 "HgN/A
6:20 AM61 °FPartly cloudy.No wind94%30.09 "HgN/A
5:20 AM63 °FPassing clouds.1 mph88%30.09 "HgN/A
4:20 AM63 °FPassing clouds.1 mph88%30.09 "HgN/A
3:20 AM63 °FPassing clouds.No wind88%30.09 "HgN/A
2:20 AM64 °FPassing clouds.2 mph83%30.09 "HgN/A
1:20 AM64 °FPassing clouds.No wind88%30.09 "HgN/A
12:20 AM66 °FPassing clouds.2 mph83%30.09 "HgN/A
11:20 PM
Sat, Jul 23
64 °FPassing clouds.1 mph88%30.09 "HgN/A
10:20 PM68 °FBroken clouds.2 mph78%30.09 "HgN/A
9:20 PM70 °FPartly sunny.2 mph69%30.09 "HgN/A
8:20 PM72 °FPartly sunny.3 mph61%30.07 "HgN/A
Weather by CustomWeather, © 2016

See weather overviewHow to use our weather pages